Total_Precipitation_Accumulation
0.00 0.01 0.01 0.02 0.04 0.04 0.04 0.11 0.29 0.43 0.24 0.14 0.27 0.51 0.36 0.35 0.35 0.37 0.36 0.27 0.21 0.12 0.19 0.08 0.04 0.00 0.00 0.00 0.00 0.00 0.01 0.01 0.01 0.00 0.00 0.00 0.00 0.00 0.00 0.00 0.00 0.00 0.00
0.00 0.00 0.01 0.01 0.01 0.01 0.01 0.02 0.15 0.36 0.16 0.14 0.18 0.30 0.17 0.18 0.21 0.31 0.20 0.17 0.22 0.21 0.09 0.02 0.07 0.00 0.00 0.00 0.01 0.01 0.02 0.02 0.02 0.01 0.00 0.00 0.00 0.00 0.00 0.00 0.00 0.00 0.00
0.00 0.00 0.00 0.01 0.01 0.01 0.00 0.00 0.02 0.22 0.18 0.07 0.07 0.12 0.23 0.18 0.14 0.28 0.21 0.11 0.20 0.31 0.24 0.04 0.03 0.02 0.01 0.01 0.01 0.01 0.01 0.02 0.02 0.01 0.00 0.00 0.00 0.00 0.00 0.00 0.00 0.00 0.00
0.00 0.00 0.00 0.00 0.01 0.00 0.00 0.00 0.00 0.04 0.08 0.08 0.04 0.03 0.09 0.08 0.02 0.05 0.04 0.08 0.09 0.10 0.10 0.03 0.02 0.02 0.02 0.01 0.03 0.03 0.03 0.02 0.02 0.02 0.01 0.00 0.00 0.00 0.00 0.00 0.00 0.00 0.00
0.00 0.00 0.00 0.00 0.00 0.00 0.00 0.00 0.00 0.00 0.01 0.02 0.08 0.01 0.02 0.05 0.10 0.03 0.05 0.08 0.10 0.09 0.08 0.04 0.05 0.04 0.01 0.06 0.06 0.04 0.04 0.05 0.04 0.04 0.03 0.02 0.00 0.00 0.00 0.00 0.00 0.00 0.00
0.00 0.00 0.00 0.00 0.00 0.00 0.00 0.00 0.00 0.00 0.01 0.01 0.01 0.02 0.00 0.01 0.01 0.02 0.05 0.06 0.05 0.06 0.02 0.01 0.01 0.01 0.02 0.06 0.07 0.13 0.11 0.10 0.08 0.06 0.04 0.03 0.03 0.03 0.06 0.12 0.11 0.06 0.01
0.01 0.01 0.00 0.00 0.00 0.00 0.00 0.00 0.00 0.00 0.00 0.00 0.00 0.00 0.01 0.01 0.02 0.01 0.03 0.04 0.03 0.02 0.02 0.01 0.01 0.01 0.05 0.07 0.08 0.11 0.10 0.09 0.07 0.08 0.08 0.09 0.10 0.10 0.14 0.16 0.14 0.09 0.02
0.00 0.01 0.01 0.01 0.00 0.00 0.00 0.00 0.00 0.00 0.00 0.00 0.00 0.01 0.02 0.01 0.05 0.05 0.11 0.05 0.03 0.02 0.01 0.01 0.01 0.02 0.04 0.06 0.08 0.08 0.09 0.15 0.24 0.25 0.23 0.22 0.19 0.16 0.13 0.09 0.09 0.08 0.02
0.00 0.00 0.01 0.02 0.04 0.04 0.03 0.01 0.00 0.00 0.00 0.00 0.00 0.02 0.07 0.04 0.08 0.28 0.16 0.14 0.04 0.04 0.02 0.06 0.06 0.03 0.03 0.04 0.09 0.17 0.26 0.31 0.29 0.26 0.22 0.17 0.11 0.07 0.06 0.06 0.06 0.06 0.04
0.00 0.00 0.01 0.01 0.05 0.09 0.13 0.17 0.08 0.02 0.00 0.00 0.00 0.00 0.08 0.09 0.12 0.23 0.10 0.15 0.16 0.18 0.26 0.22 0.13 0.10 0.14 0.25 0.43 0.49 0.45 0.35 0.27 0.22 0.17 0.12 0.09 0.08 0.09 0.11 0.10 0.12 0.16
0.00 0.00 0.00 0.00 0.03 0.11 0.11 0.18 0.26 0.18 0.07 0.02 0.00 0.02 0.13 0.13 0.19 0.18 0.25 0.26 0.41 0.46 0.41 0.38 0.41 0.64 0.80 0.73 0.59 0.50 0.41 0.33 0.28 0.22 0.20 0.20 0.19 0.21 0.22 0.24 0.27 0.29 0.31
0.00 0.00 0.00 0.00 0.01 0.05 0.08 0.05 0.20 0.23 0.28 0.17 0.09 0.07 0.20 0.24 0.28 0.43 0.44 0.52 0.63 0.69 0.82 0.89 0.75 0.65 0.71 0.84 0.89 0.79 0.70 0.62 0.55 0.47 0.47 0.44 0.42 0.44 0.34 0.27 0.22 0.17 0.15
0.00 0.00 0.00 0.00 0.00 0.02 0.05 0.05 0.06 0.11 0.21 0.30 0.30 0.15 0.28 0.30 0.57 0.61 0.79 0.94 1.01 1.15 1.18 1.15 1.02 0.90 0.79 0.64 0.55 0.46 0.36 0.29 0.26 0.25 0.25 0.22 0.22 0.22 0.20 0.18 0.16 0.14 0.13
0.00 0.00 0.00 0.00 0.00 0.00 0.01 0.05 0.05 0.07 0.10 0.20 0.27 0.23 0.27 0.38 0.48 0.55 0.62 0.99 1.13 0.92 0.72 0.68 0.53 0.27 0.13 0.08 0.08 0.10 0.12 0.14 0.16 0.16 0.16 0.17 0.17 0.17 0.22 0.25 0.25 0.25 0.26
0.00 0.00 0.00 0.00 0.00 0.00 0.00 0.01 0.03 0.06 0.16 0.21 0.33 0.31 0.38 0.63 0.66 0.69 0.62 0.53 0.40 0.34 0.28 0.21 0.16 0.12 0.08 0.10 0.10 0.08 0.08 0.10 0.13 0.16 0.19 0.20 0.24 0.26 0.23 0.20 0.17 0.21 0.25
0.00 0.00 0.00 0.00 0.00 0.00 0.00 0.01 0.05 0.08 0.16 0.20 0.20 0.27 0.32 0.25 0.29 0.27 0.24 0.20 0.17 0.16 0.14 0.15 0.13 0.15 0.14 0.27 0.25 0.21 0.18 0.22 0.24 0.24 0.20 0.19 0.31 0.25 0.30 0.31 0.32 0.30 0.31
0.00 0.00 0.00 0.00 0.00 0.00 0.03 0.04 0.06 0.11 0.13 0.15 0.16 0.19 0.16 0.11 0.12 0.11 0.11 0.11 0.10 0.10 0.10 0.10 0.10 0.13 0.19 0.45 0.31 0.31 0.18 0.19 0.25 0.31 0.37 0.42 0.45 0.46 0.35 0.35 0.32 0.28 0.27
0.00 0.00 0.00 0.00 0.00 0.02 0.03 0.06 0.07 0.08 0.09 0.10 0.09 0.07 0.06 0.05 0.04 0.06 0.08 0.09 0.11 0.09 0.11 0.15 0.23 0.26 0.39 0.53 0.36 0.39 0.30 0.34 0.39 0.38 0.32 0.27 0.23 0.21 0.17 0.13 0.14 0.16 0.18
0.00 0.00 0.00 0.00 0.00 0.00 0.00 0.01 0.03 0.04 0.03 0.04 0.05 0.03 0.03 0.03 0.06 0.10 0.10 0.08 0.10 0.13 0.16 0.17 0.19 0.19 0.26 0.38 0.25 0.20 0.13 0.14 0.13 0.11 0.10 0.10 0.10 0.17 0.16 0.14 0.15 0.13 0.10
0.00 0.00 0.00 0.00 0.00 0.00 0.00 0.00 0.00 0.01 0.01 0.03 0.03 0.03 0.04 0.04 0.05 0.05 0.05 0.06 0.09 0.13 0.13 0.15 0.12 0.16 0.11 0.19 0.14 0.08 0.03 0.05 0.06 0.08 0.12 0.18 0.12 0.11 0.08 0.08 0.10 0.12 0.09
0.00 0.00 0.00 0.00 0.00 0.00 0.00 0.00 0.00 0.01 0.01 0.02 0.02 0.02 0.02 0.02 0.02 0.03 0.04 0.05 0.05 0.04 0.03 0.03 0.03 0.04 0.05 0.08 0.09 0.08 0.06 0.10 0.12 0.13 0.11 0.10 0.14 0.10 0.08 0.08 0.11 0.12 0.08
0.00 0.00 0.00 0.00 0.00 0.00 0.00 0.00 0.00 0.00 0.01 0.01 0.01 0.01 0.01 0.01 0.01 0.01 0.01 0.02 0.02 0.02 0.02 0.03 0.05 0.05 0.07 0.12 0.14 0.14 0.14 0.16 0.15 0.17 0.16 0.12 0.09 0.08 0.07 0.07 0.06 0.04 0.05
0.00 0.00 0.00 0.00 0.00 0.00 0.00 0.00 0.00 0.00 0.00 0.00 0.00 0.00 0.00 0.00 0.00 0.00 0.00 0.01 0.01 0.01 0.02 0.03 0.05 0.09 0.13 0.20 0.23 0.16 0.13 0.13 0.14 0.14 0.11 0.09 0.07 0.06 0.08 0.05 0.03 0.03 0.07
0.00 0.00 0.00 0.00 0.00 0.00 0.00 0.00 0.00 0.00 0.00 0.00 0.00 0.00 0.00 0.00 0.00 0.00 0.01 0.01 0.02 0.03 0.07 0.14 0.20 0.22 0.20 0.18 0.16 0.13 0.13 0.12 0.10 0.07 0.06 0.05 0.05 0.06 0.07 0.07 0.06 0.06 0.06
0.01 0.00 0.00 0.00 0.00 0.00 0.00 0.00 0.00 0.00 0.00 0.00 0.00 0.00 0.00 0.00 0.00 0.01 0.03 0.05 0.15 0.16 0.18 0.19 0.18 0.17 0.18 0.17 0.12 0.08 0.06 0.04 0.03 0.03 0.06 0.08 0.09 0.09 0.09 0.08 0.08 0.08 0.08
0.02 0.00 0.01 0.01 0.00 0.00 0.00 0.00 0.00 0.00 0.00 0.00 0.00 0.00 0.01 0.02 0.04 0.08 0.14 0.17 0.15 0.14 0.14 0.14 0.12 0.13 0.12 0.09 0.07 0.06 0.06 0.07 0.05 0.03 0.04 0.04 0.05 0.05 0.07 0.10 0.12 0.11 0.10